Medicine Lodge, KS

9:52 PM CDT on May 22, 2017 (GMT -0500)
Medicine Lodge

Weather History for KP28 - December, 2012

Change the Weather History Date:

Sunday, December 30, 2012

  Actual Average Record
Temperature  
Mean Temperature 34 °F 33 °F  
Max Temperature 45 °F 44 °F 74 °F (1929)
Min Temperature 22 °F 21 °F -13 °F (1983)
Degree Days  
Heating Degree Days 31 32  
Month to date heating degree days 810 909  
Since 1 July heating degree days 1546 1767  
Cooling Degree Days 0 0  
Month to date cooling degree days 0 0  
Year to date cooling degree days 2258 1770  
Moisture  
Dew Point 17 °F    
Average Humidity 67    
Maximum Humidity 77    
Minimum Humidity 56    
Precipitation  
Precipitation 0.00 in 0.02 in 0.66 in (2006)
Month to date precipitation 0.19 0.90  
Year to date precipitation 18.11 27.12  
Snow  
Snow 0.00 in 0.00 in - ()
Month to date snowfall T 2.6  
Since 1 July snowfall T 2.8  
Snow Depth 0.00 in    
Sea Level Pressure  
Sea Level Pressure 30.20 in    
Wind  
Wind Speed 12 mph (South)    
Max Wind Speed 28 mph    
Max Gust Speed 37 mph    
T = Trace of Precipitation, MM = Missing Value Source: NWS Daily Summary

Daily Weather History Graph

Daily Weather History Graph

Search for Another Location

Airport or City:

Trip Planner

Search our weather history database for the weather conditions in past years. The results will help you decide how hot, cold, wet, or windy it might be!

Date:

Astronomy

Dec. 30, 2012 Rise Set
Actual Time 7:48 AM CST 5:26 PM CST
Civil Twilight 7:19 AM CST 5:55 PM CST
Nautical Twilight 6:46 AM CST 6:28 PM CST
Astronomical Twilight 6:14 AM CST 6:59 PM CST
Moon 7:55 PM CST (12/30) 9:01 AM CST (12/30)
Length of Visible Light 10h 36m
Length of Day
9h 38m
Waning Gibbous, 95% of the Moon is Illuminated
Dec 30
Waning Gibbous
Jan 4
Last Quarter
Jan 11
New
Jan 18
First Quarter
Jan 26
Full

Hourly Weather History & Observations

Time (CST) Temp. Windchill Dew Point Humidity Pressure Visibility Wind Dir Wind Speed Gust Speed Precip Events Conditions
12:56 AM 27.0 °F 18.7 °F 14.0 °F 58% 30.30 in - South 8.1 mph - N/A   Unknown
1:56 AM 28.0 °F 20.0 °F 16.0 °F 61% 30.29 in - SSE 8.1 mph - N/A   Unknown
2:56 AM 26.1 °F 16.2 °F 17.1 °F 69% 30.30 in - South 10.4 mph - N/A   Unknown
3:56 AM 25.0 °F 14.8 °F 17.1 °F 72% 30.28 in - South 10.4 mph - N/A   Unknown
4:56 AM 25.0 °F 17.1 °F 17.1 °F 72% 30.27 in - SSE 6.9 mph - N/A   Unknown
5:56 AM 24.1 °F 15.2 °F 17.1 °F 75% 30.26 in - SSE 8.1 mph - N/A   Unknown
6:56 AM 21.9 °F 11.7 °F 16.0 °F 78% 30.27 in - SSE 9.2 mph - N/A   Unknown
7:56 AM 24.1 °F 14.4 °F 17.1 °F 75% 30.28 in - South 9.2 mph - N/A   Unknown
8:56 AM 28.0 °F 20.0 °F 19.0 °F 69% 30.26 in - South 8.1 mph - N/A   Unknown
9:56 AM 34.0 °F 23.4 °F 19.9 °F 56% 30.25 in - South 17.3 mph 24.2 mph N/A   Unknown
10:56 AM 37.0 °F 26.7 °F - N/A% 30.25 in - South 19.6 mph 27.6 mph N/A   Unknown
11:56 AM 42.1 °F 34.2 °F - N/A% 30.22 in - SSW 16.1 mph 26.5 mph N/A   Unknown
12:56 PM 44.1 °F 36.2 °F - N/A% 30.17 in - SSW 18.4 mph 31.1 mph N/A   Unknown
1:56 PM 45.0 °F 37.1 °F - N/A% 30.14 in - SSW 19.6 mph 34.5 mph N/A   Unknown
2:56 PM 45.0 °F 37.4 °F - N/A% 30.14 in - South 18.4 mph 26.5 mph N/A   Unknown
3:56 PM 44.1 °F 35.9 °F - N/A% 30.13 in - South 19.6 mph 28.8 mph N/A   Unknown
4:56 PM 42.1 °F 34.5 °F - N/A% 30.13 in - South 15.0 mph - N/A   Unknown
5:56 PM 39.0 °F 33.4 °F - N/A% 30.13 in - SSE 8.1 mph - N/A   Unknown
6:56 PM 37.0 °F 29.8 °F - N/A% 30.13 in - South 10.4 mph - N/A   Unknown
7:56 PM 37.0 °F 29.8 °F - N/A% 30.14 in - South 10.4 mph - N/A   Unknown
8:56 PM 37.0 °F 31.0 °F - N/A% 30.13 in - South 8.1 mph - N/A   Unknown
9:56 PM 36.0 °F 28.5 °F - N/A% 30.11 in - South 10.4 mph - N/A   Unknown
10:56 PM 35.1 °F 31.0 °F - N/A% 30.12 in - South 4.6 mph - N/A   Unknown
11:56 PM 35.1 °F 30.1 °F - N/A% 30.10 in - SE 5.8 mph - N/A   Unknown